Boonville, MO

9:55 AM CDT on March 29, 2017 (GMT -0500)
Viertel Memorial

Weather History for KVER - April, 2014

Change the Weather History Date:

Thursday, April 10, 2014

  Actual Average Record
Temperature  
Mean Temperature 62 °F -  
Max Temperature 71 °F 62 °F 83 °F (2011)
Min Temperature 52 °F 40 °F 25 °F (1973)
Degree Days  
Heating Degree Days 3    
Growing Degree Days 12 (Base 50)    
Moisture  
Dew Point 38 °F    
Average Humidity 41    
Maximum Humidity 55    
Minimum Humidity 35    
Precipitation  
Precipitation 0.00 in - - ()
Sea Level Pressure  
Sea Level Pressure 29.84 in    
Wind  
Wind Speed 10 mph (WSW)    
Max Wind Speed 17 mph    
Max Gust Speed 23 mph    
Visibility 10 miles    
Events      
Averages and records for this station are not official NWS values.
T = Trace of Precipitation, MM = Missing Value Source: NWS Daily Summary

Daily Weather History Graph

Daily Weather History Graph

Search for Another Location

Airport or City:

Trip Planner

Search our weather history database for the weather conditions in past years. The results will help you decide how hot, cold, wet, or windy it might be!

Date:

Astronomy

Apr. 10, 2014 Rise Set
Actual Time 6:41 AM CDT 7:43 PM CDT
Civil Twilight 6:14 AM CDT 8:10 PM CDT
Nautical Twilight 5:41 AM CDT 8:42 PM CDT
Astronomical Twilight 5:08 AM CDT 9:16 PM CDT
Moon 3:29 PM CDT (4/10) 4:02 AM CDT (4/10)
Length of Visible Light 13h 56m
Length of Day
13h 01m
Waxing Gibbous, 80% of the Moon is Illuminated
Apr 10
Waxing Gibbous
Apr 15
Full
Apr 22
Last Quarter
Apr 29
New
May 6
First Quarter

Hourly Weather History & Observations

Time (CDT) Temp. Dew Point Humidity Pressure Visibility Wind Dir Wind Speed Gust Speed Precip Events Conditions
12:15 AM 58.6 °F 33.1 °F 38% 29.83 in 10.0 mi SSE 13.8 mph - N/A   Clear
12:35 AM 59.0 °F 32.5 °F 37% 29.83 in 10.0 mi SSE 17.3 mph - N/A   Clear
12:55 AM 58.6 °F 32.9 °F 38% 29.82 in 10.0 mi SSE 12.7 mph - N/A   Clear
1:15 AM 57.9 °F 33.6 °F 40% 29.82 in 10.0 mi South 11.5 mph - N/A   Clear
1:35 AM 57.2 °F 34.0 °F 42% 29.82 in 10.0 mi SSE 10.4 mph - N/A   Clear
1:55 AM 56.5 °F 34.3 °F 43% 29.80 in 10.0 mi SSE 10.4 mph - N/A   Clear
2:15 AM 55.6 °F 35.2 °F 46% 29.80 in 10.0 mi South 10.4 mph - N/A   Clear
2:35 AM 55.0 °F 35.8 °F 48% 29.80 in 10.0 mi South 10.4 mph - N/A   Clear
2:55 AM 54.9 °F 36.1 °F 49% 29.79 in 10.0 mi South 10.4 mph - N/A   Clear
3:15 AM 54.5 °F 36.5 °F 51% 29.78 in 10.0 mi South 9.2 mph - N/A   Clear
3:35 AM 54.1 °F 36.5 °F 51% 29.78 in 10.0 mi SSE 9.2 mph - N/A   Clear
3:55 AM 53.8 °F 36.7 °F 52% 29.77 in 10.0 mi South 9.2 mph - N/A   Clear
4:15 AM 53.2 °F 37.2 °F 55% 29.77 in 10.0 mi South 8.1 mph - N/A   Clear
4:35 AM 55.4 °F 37.8 °F 52% 29.76 in 10.0 mi South 9.2 mph - N/A   Clear
4:55 AM 58.8 °F 38.1 °F 46% 29.76 in 10.0 mi South 9.2 mph - N/A   Clear
5:15 AM 60.4 °F 38.3 °F 44% 29.75 in 10.0 mi SSW 8.1 mph - N/A   Clear
5:35 AM 62.1 °F 37.9 °F 41% 29.75 in 10.0 mi SSW 9.2 mph - N/A   Clear
5:55 AM 62.2 °F 37.9 °F 41% 29.74 in 10.0 mi South 12.7 mph 19.6 mph N/A   Clear
6:15 AM 62.1 °F 37.8 °F 41% 29.74 in 10.0 mi Calm Calm - N/A   Clear
6:35 AM 61.0 °F 38.3 °F 43% 29.74 in 10.0 mi SSW 6.9 mph - N/A   Clear
7:15 AM 61.5 °F 38.5 °F 43% 29.75 in 10.0 mi SSW 6.9 mph - N/A   Clear
7:35 AM 62.6 °F 39.0 °F 42% 29.78 in 10.0 mi SW 4.6 mph - N/A   Clear
7:55 AM 62.8 °F 39.4 °F 42% 29.81 in 10.0 mi WNW 3.5 mph - N/A   Clear
8:15 AM 63.0 °F 40.1 °F 43% 29.79 in 10.0 mi SSW 9.2 mph - N/A   Clear
8:35 AM 63.9 °F 40.8 °F 43% 29.80 in 10.0 mi SW 4.6 mph - N/A   Clear
8:55 AM 64.8 °F 41.4 °F 42% 29.79 in 10.0 mi SW 5.8 mph - N/A   Clear
9:15 AM 65.5 °F 41.5 °F 42% 29.80 in 10.0 mi SW 9.2 mph 16.1 mph N/A   Clear
9:35 AM 66.4 °F 41.9 °F 41% 29.80 in 10.0 mi WSW 10.4 mph 17.3 mph N/A   Clear
9:55 AM 66.9 °F 42.8 °F 42% 29.80 in 10.0 mi SW 12.7 mph 17.3 mph N/A   Clear
10:15 AM 67.5 °F 42.8 °F 41% 29.81 in 10.0 mi SW 8.1 mph 18.4 mph N/A   Clear
10:35 AM 68.5 °F 43.5 °F 40% 29.81 in 10.0 mi SW 13.8 mph 20.7 mph N/A   Clear
10:55 AM 69.3 °F 43.3 °F 39% 29.81 in 10.0 mi WSW 13.8 mph 23.0 mph N/A   Clear
11:15 AM 69.8 °F 43.0 °F 38% 29.82 in 10.0 mi WSW 15.0 mph 23.0 mph N/A   Clear
11:35 AM 70.5 °F 44.4 °F 39% 29.82 in 10.0 mi WSW 9.2 mph 19.6 mph N/A   Clear
11:55 AM 71.2 °F 44.2 °F 38% 29.82 in 10.0 mi WSW 13.8 mph 18.4 mph N/A   Clear
12:15 PM 71.2 °F 43.3 °F 37% 29.81 in 10.0 mi West 9.2 mph - N/A   Clear
12:35 PM 70.9 °F 43.9 °F 38% 29.82 in 10.0 mi West 11.5 mph - N/A   Clear
12:55 PM 71.2 °F 42.8 °F 36% 29.83 in 10.0 mi West 9.2 mph - N/A   Clear
1:15 PM 70.7 °F 42.8 °F 36% 29.83 in 10.0 mi NW 9.2 mph - N/A   Clear
1:35 PM 70.5 °F 42.6 °F 36% 29.85 in 10.0 mi WNW 8.1 mph - N/A   Clear
1:55 PM 70.9 °F 43.0 °F 37% 29.84 in 10.0 mi WNW 9.2 mph - N/A   Clear
2:15 PM 71.1 °F 42.4 °F 36% 29.85 in 10.0 mi NW 8.1 mph - N/A   Clear
2:35 PM 70.9 °F 42.6 °F 36% 29.84 in 10.0 mi NNW 9.2 mph - N/A   Clear
2:55 PM 71.1 °F 43.0 °F 36% 29.84 in 10.0 mi NW 10.4 mph - N/A   Clear
3:15 PM 70.2 °F 44.2 °F 39% 29.84 in 10.0 mi North 10.4 mph - N/A   Clear
3:35 PM 69.6 °F 44.8 °F 41% 29.83 in 10.0 mi North 8.1 mph - N/A   Clear
3:55 PM 69.4 °F 44.6 °F 41% 29.85 in 10.0 mi NNW 10.4 mph - N/A   Clear
4:15 PM 69.8 °F 43.5 °F 39% 29.85 in 10.0 mi North 12.7 mph - N/A   Clear
4:35 PM 69.3 °F 41.4 °F 36% 29.85 in 10.0 mi North 13.8 mph - N/A   Clear
4:55 PM 68.2 °F 40.3 °F 36% 29.85 in 10.0 mi North 12.7 mph 19.6 mph N/A   Clear
5:15 PM 68.0 °F 40.1 °F 36% 29.85 in 10.0 mi NNE 10.4 mph 17.3 mph N/A   Clear
5:35 PM 68.4 °F 39.7 °F 35% 29.86 in 10.0 mi NNE 11.5 mph - N/A   Clear
5:55 PM 66.9 °F 39.9 °F 37% 29.88 in 10.0 mi North 10.4 mph - N/A   Clear
6:35 PM 64.9 °F 39.6 °F 39% 29.87 in 10.0 mi NNE 8.1 mph - N/A   Clear
6:55 PM 64.2 °F 38.7 °F 39% 29.89 in 10.0 mi North 9.2 mph - N/A   Clear
7:15 PM 63.3 °F 38.3 °F 40% 29.90 in 10.0 mi North 13.8 mph - N/A   Clear
7:35 PM 62.2 °F 35.2 °F 37% 29.91 in 10.0 mi North 10.4 mph - N/A   Clear
7:55 PM 60.3 °F 33.8 °F 37% 29.92 in 10.0 mi North 9.2 mph - N/A   Clear
8:15 PM 59.0 °F 32.2 °F 36% 29.93 in 10.0 mi North 6.9 mph - N/A   Clear
8:35 PM 57.6 °F 32.7 °F 39% 29.95 in 10.0 mi North 5.8 mph - N/A   Clear
8:55 PM 56.7 °F 32.9 °F 41% 29.96 in 10.0 mi North 4.6 mph - N/A   Clear
9:15 PM 56.1 °F 33.1 °F 42% 29.96 in 10.0 mi Calm Calm - N/A   Clear
9:55 PM 55.4 °F 32.9 °F 43% 29.99 in 10.0 mi Calm Calm - N/A   Clear
10:15 PM 55.2 °F 32.2 °F 42% 30.00 in 10.0 mi Calm Calm - N/A   Clear
10:35 PM 54.7 °F 32.0 °F 42% 30.00 in 10.0 mi Calm Calm - N/A   Clear
10:55 PM 54.7 °F 31.8 °F 42% 30.00 in 10.0 mi Calm Calm - N/A   Clear
11:15 PM 54.1 °F 31.5 °F 42% 30.00 in 10.0 mi Calm Calm - N/A   Clear
11:35 PM 53.1 °F 31.6 °F 44% 30.00 in 10.0 mi Calm Calm - N/A   Clear
11:55 PM 52.7 °F 31.3 °F 44% 30.00 in 10.0 mi Calm Calm - N/A   Clear